^^
Your Local Weather - Clay, NY Station Historical Data
Daily Summary for February 28, 2017 Units:  English    Metric   Both
« Previous Day
Next Day »
Daily Weekly Monthly Yearly Custom
  High: Low: Average:
Temperature: 57.9 °F 30.5 °F 45.6 °F
Dew Point: 41.7 °F 26.6 °F 34.7 °F
Humidity: 88% 49% 67%
Wind Speed: 7.0mph 0.0mph 2.1mph
Wind Gust: 18.0mph - -
Wind- - ESE
Pressure: 30.31 in 29.78 in -
Precipitation: 0.00 in    
Historical Graphs
 
 
Tabular Data for February 28, 2017
Time Temperature Dew Point Pressure Wind Wind Speed Wind Gust Humidity Rainfall Rate (Hourly) solar
00:04 30.9 °F 26.9 °F 30.29 in Calm     85% 0.00 in 0 W/m2
00:10 30.9 °F 26.9 °F 30.29 in Calm     85% 0.00 in 0 W/m2
00:16 30.8 °F 26.8 °F 30.30 in Calm     85% 0.00 in 0 W/m2
00:22 30.6 °F 26.6 °F 30.30 in Calm     85% 0.00 in 0 W/m2
00:28 30.5 °F 26.8 °F 30.30 in Calm     86% 0.00 in 0 W/m2
00:34 30.7 °F 27.0 °F 30.30 in Calm     86% 0.00 in 0 W/m2
00:40 30.9 °F 27.5 °F 30.30 in Calm     87% 0.00 in 0 W/m2
00:46 31.0 °F 27.6 °F 30.30 in Calm     87% 0.00 in 0 W/m2
00:52 31.0 °F 27.6 °F 30.30 in Calm     87% 0.00 in 0 W/m2
00:58 31.0 °F 27.9 °F 30.30 in Calm     88% 0.00 in 0 W/m2
01:06 31.0 °F 27.9 °F 30.30 in Calm     88% 0.00 in 0 W/m2
01:12 31.0 °F 27.9 °F 30.30 in Calm     88% 0.00 in 0 W/m2
01:18 31.2 °F 28.1 °F 30.30 in Calm     88% 0.00 in 0 W/m2
01:24 31.4 °F 28.3 °F 30.30 in Calm     88% 0.00 in 0 W/m2
01:30 31.6 °F 28.5 °F 30.31 in Calm     88% 0.00 in 0 W/m2
01:36 31.9 °F 28.8 °F 30.30 in Calm     88% 0.00 in 0 W/m2
01:42 32.1 °F 28.9 °F 30.30 in Calm     88% 0.00 in 0 W/m2
01:48 32.3 °F 29.1 °F 30.30 in Calm     88% 0.00 in 0 W/m2
01:54 32.4 °F 29.2 °F 30.30 in Calm     88% 0.00 in 0 W/m2
02:00 32.6 °F 29.4 °F 30.30 in Calm     88% 0.00 in 0 W/m2
02:06 32.7 °F 29.3 °F 30.30 in Calm     87% 0.00 in 0 W/m2
02:12 33.0 °F 29.3 °F 30.30 in Calm   1.0 mph 86% 0.00 in 0 W/m2
02:18 33.5 °F 29.2 °F 30.30 in Calm   2.0 mph 84% 0.00 in 0 W/m2
02:24 33.8 °F 29.2 °F 30.30 in Calm   1.0 mph 83% 0.00 in 0 W/m2
02:30 33.9 °F 29.0 °F 30.29 in Calm     82% 0.00 in 0 W/m2
02:36 34.1 °F 28.9 °F 30.29 in Calm     81% 0.00 in 0 W/m2
02:42 34.1 °F 28.9 °F 30.28 in Calm   1.0 mph 81% 0.00 in 0 W/m2
02:48 34.1 °F 28.9 °F 30.28 in Calm   1.0 mph 81% 0.00 in 0 W/m2
02:54 34.1 °F 28.9 °F 30.28 in Calm     81% 0.00 in 0 W/m2
03:00 34.1 °F 28.9 °F 30.28 in Calm     81% 0.00 in 0 W/m2
03:06 34.1 °F 28.9 °F 30.28 in Calm     81% 0.00 in 0 W/m2
03:12 34.1 °F 29.2 °F 30.28 in Calm     82% 0.00 in 0 W/m2
03:18 34.2 °F 29.3 °F 30.28 in Calm     82% 0.00 in 0 W/m2
03:24 34.3 °F 29.7 °F 30.28 in Calm   2.0 mph 83% 0.00 in 0 W/m2
03:30 34.3 °F 29.4 °F 30.28 in Calm     82% 0.00 in 0 W/m2
03:36 34.3 °F 29.4 °F 30.28 in Calm   1.0 mph 82% 0.00 in 0 W/m2
03:42 34.3 °F 29.4 °F 30.28 in Calm     82% 0.00 in 0 W/m2
03:48 34.3 °F 29.4 °F 30.28 in Calm     82% 0.00 in 0 W/m2
03:54 34.3 °F 29.4 °F 30.28 in Calm     82% 0.00 in 0 W/m2
04:00 34.3 °F 29.7 °F 30.28 in Calm     83% 0.00 in 0 W/m2
04:06 34.3 °F 29.7 °F 30.28 in Calm     83% 0.00 in 0 W/m2
04:12 34.1 °F 29.8 °F 30.28 in Calm     84% 0.00 in 0 W/m2
04:18 34.0 °F 29.7 °F 30.28 in Calm     84% 0.00 in 0 W/m2
04:24 34.0 °F 30.0 °F 30.28 in Calm     85% 0.00 in 0 W/m2
04:30 34.0 °F 30.0 °F 30.28 in Calm     85% 0.00 in 0 W/m2
04:36 33.8 °F 30.1 °F 30.28 in Calm     86% 0.00 in 0 W/m2
04:42 33.6 °F 29.9 °F 30.28 in Calm     86% 0.00 in 0 W/m2
04:48 33.5 °F 29.8 °F 30.28 in Calm     86% 0.00 in 0 W/m2
04:54 33.4 °F 29.7 °F 30.28 in Calm     86% 0.00 in 0 W/m2
05:00 33.2 °F 29.2 °F 30.28 in Calm     85% 0.00 in 0 W/m2
05:06 33.2 °F 29.2 °F 30.28 in Calm     85% 0.00 in 0 W/m2
05:12 33.4 °F 29.4 °F 30.28 in Calm     85% 0.00 in 0 W/m2
05:18 33.6 °F 29.3 °F 30.28 in NE 1.0 mph 1.0 mph 84% 0.00 in 0 W/m2
05:24 33.7 °F 29.4 °F 30.28 in East 1.0 mph 2.0 mph 84% 0.00 in 0 W/m2
05:30 34.0 °F 29.4 °F 30.28 in East 2.0 mph 2.0 mph 83% 0.00 in 0 W/m2
05:36 34.1 °F 29.5 °F 30.28 in East 1.0 mph 2.0 mph 83% 0.00 in 0 W/m2
05:42 34.1 °F 29.5 °F 30.28 in Calm     83% 0.00 in 0 W/m2
05:48 34.0 °F 29.4 °F 30.28 in Calm     83% 0.00 in 0 W/m2
05:54 33.9 °F 29.6 °F 30.28 in Calm     84% 0.00 in 0 W/m2
06:00 33.8 °F 29.5 °F 30.28 in Calm     84% 0.00 in 0 W/m2
06:06 33.8 °F 29.2 °F 30.29 in Calm     83% 0.00 in 0 W/m2
06:12 33.8 °F 29.2 °F 30.28 in Calm   1.0 mph 83% 0.00 in 0 W/m2
06:18 34.0 °F 29.7 °F 30.28 in East 1.0 mph 1.0 mph 84% 0.00 in 0 W/m2
06:24 34.2 °F 29.3 °F 30.27 in ENE 1.0 mph 2.0 mph 82% 0.00 in 0 W/m2
06:30 34.6 °F 29.4 °F 30.27 in ENE 1.0 mph 1.0 mph 81% 0.00 in 0 W/m2
06:36 34.7 °F 29.2 °F 30.28 in ENE 1.0 mph 2.0 mph 80% 0.00 in 0 W/m2
06:40 34.8 °F 29.3 °F 30.28 in ENE 1.0 mph 2.0 mph 80% 0.00 in 0 W/m2
06:46 34.8 °F 29.3 °F 30.28 in ENE 1.0 mph 2.0 mph 80% 0.00 in 0 W/m2
06:52 35.0 °F 29.1 °F 30.28 in Calm   1.0 mph 79% 0.00 in 0 W/m2
06:58 35.0 °F 29.1 °F 30.28 in Calm   1.0 mph 79% 0.00 in 0 W/m2
07:04 35.2 °F 29.3 °F 30.28 in ENE 1.0 mph 1.0 mph 79% 0.00 in 7 W/m2
07:10 35.3 °F 29.4 °F 30.28 in ENE 1.0 mph 1.0 mph 79% 0.00 in 23 W/m2
07:16 35.4 °F 29.2 °F 30.28 in ENE 1.0 mph 2.0 mph 78% 0.00 in 37 W/m2
07:22 35.5 °F 29.3 °F 30.27 in ENE 1.0 mph 1.0 mph 78% 0.00 in 39 W/m2
07:28 35.6 °F 29.4 °F 30.27 in ENE 1.0 mph 2.0 mph 78% 0.00 in 35 W/m2
07:34 35.8 °F 29.6 °F 30.27 in ENE 1.0 mph 2.0 mph 78% 0.00 in 42 W/m2
07:40 35.9 °F 29.7 °F 30.27 in ENE 1.0 mph 2.0 mph 78% 0.00 in 53 W/m2
07:46 36.2 °F 30.0 °F 30.26 in ENE 1.0 mph 2.0 mph 78% 0.00 in 70 W/m2
07:52 36.4 °F 29.9 °F 30.26 in ENE 1.0 mph 2.0 mph 77% 0.00 in 62 W/m2
07:58 36.5 °F 30.0 °F 30.26 in ENE 1.0 mph 2.0 mph 77% 0.00 in 49 W/m2
08:04 36.6 °F 30.1 °F 30.26 in ENE 1.0 mph 1.0 mph 77% 0.00 in 51 W/m2
08:10 37.3 °F 30.7 °F 30.26 in Calm     77% 0.00 in 120 W/m2
08:16 38.2 °F 31.0 °F 30.25 in Calm   3.0 mph 75% 0.00 in 155 W/m2
08:22 38.9 °F 31.3 °F 30.25 in East 1.0 mph 1.0 mph 74% 0.00 in 206 W/m2
08:28 39.7 °F 31.8 °F 30.25 in East 2.0 mph 4.0 mph 73% 0.00 in 171 W/m2
08:30 39.8 °F 31.8 °F 30.25 in ENE 2.0 mph 3.0 mph 73% 0.00 in 172 W/m2
08:36 40.4 °F 32.4 °F 30.25 in East 1.0 mph 3.0 mph 73% 0.00 in 207 W/m2
08:42 41.5 °F 33.1 °F 30.25 in SE 2.0 mph 4.0 mph 72% 0.00 in 299 W/m2
08:48 42.1 °F 33.4 °F 30.25 in SE 2.0 mph 4.0 mph 71% 0.00 in 295 W/m2
08:54 42.6 °F 33.1 °F 30.25 in East 2.0 mph 2.0 mph 69% 0.00 in 311 W/m2
09:00 42.8 °F 33.7 °F 30.25 in SE 2.0 mph 4.0 mph 70% 0.00 in 285 W/m2
09:06 43.1 °F 34.0 °F 30.24 in NE 3.0 mph 4.0 mph 70% 0.00 in 285 W/m2
09:12 43.3 °F 33.8 °F 30.24 in East 3.0 mph 3.0 mph 69% 0.00 in 236 W/m2
09:18 43.8 °F 34.3 °F 30.24 in East 2.0 mph 5.0 mph 69% 0.00 in 308 W/m2
09:24 44.1 °F 34.2 °F 30.23 in ENE 2.0 mph 3.0 mph 68% 0.00 in 258 W/m2
09:30 44.1 °F 34.2 °F 30.23 in ENE 2.0 mph 2.0 mph 68% 0.00 in 315 W/m2
09:36 44.6 °F 34.7 °F 30.23 in ENE 3.0 mph 4.0 mph 68% 0.00 in 271 W/m2
09:42 44.7 °F 34.8 °F 30.22 in ENE 2.0 mph 2.0 mph 68% 0.00 in 265 W/m2
09:48 44.8 °F 34.5 °F 30.23 in East 3.0 mph 3.0 mph 67% 0.00 in 258 W/m2
09:54 45.2 °F 34.9 °F 30.23 in ESE 3.0 mph 3.0 mph 67% 0.00 in 250 W/m2
10:00 45.4 °F 34.7 °F 30.24 in SSE 2.0 mph 3.0 mph 66% 0.00 in 225 W/m2
10:06 45.5 °F 35.5 °F 30.23 in ESE 2.0 mph 3.0 mph 68% 0.00 in 274 W/m2
10:12 46.6 °F 35.8 °F 30.23 in SE 1.0 mph 4.0 mph 66% 0.00 in 432 W/m2
10:18 47.0 °F 35.4 °F 30.22 in ENE 2.0 mph 4.0 mph 64% 0.00 in 406 W/m2
10:24 47.3 °F 35.3 °F 30.22 in NE 2.0 mph 5.0 mph 63% 0.00 in 387 W/m2
10:30 47.5 °F 36.3 °F 30.22 in SE 3.0 mph 3.0 mph 65% 0.00 in 287 W/m2
10:36 47.7 °F 36.1 °F 30.22 in SE 2.0 mph 3.0 mph 64% 0.00 in 313 W/m2
10:42 47.8 °F 35.4 °F 30.21 in ENE 2.0 mph 3.0 mph 62% 0.00 in 299 W/m2
10:48 47.9 °F 37.1 °F 30.21 in ENE 2.0 mph 3.0 mph 66% 0.00 in 322 W/m2
10:54 48.0 °F 35.6 °F 30.22 in ENE 2.0 mph 4.0 mph 62% 0.00 in 415 W/m2
11:00 47.5 °F 35.5 °F 30.20 in ENE 4.0 mph 4.0 mph 63% 0.00 in 294 W/m2
11:06 48.0 °F 35.6 °F 30.20 in ENE 3.0 mph 4.0 mph 62% 0.00 in 429 W/m2
11:12 48.7 °F 37.1 °F 30.20 in ENE 3.0 mph 3.0 mph 64% 0.00 in 526 W/m2
11:18 49.3 °F 36.0 °F 30.20 in East 2.0 mph 3.0 mph 60% 0.00 in 524 W/m2
11:24 49.5 °F 37.0 °F 30.20 in SE 3.0 mph 4.0 mph 62% 0.00 in 501 W/m2
11:30 49.7 °F 36.4 °F 30.19 in ENE 3.0 mph 3.0 mph 60% 0.00 in 445 W/m2
11:36 49.9 °F 37.0 °F 30.19 in SE 4.0 mph 8.0 mph 61% 0.00 in 445 W/m2
11:42 51.0 °F 36.7 °F 30.18 in ENE 3.0 mph 3.0 mph 58% 0.00 in 489 W/m2
11:48 50.7 °F 37.7 °F 30.17 in East 3.0 mph 3.0 mph 61% 0.00 in 427 W/m2
11:54 50.8 °F 37.8 °F 30.17 in East 3.0 mph 5.0 mph 61% 0.00 in 411 W/m2
12:00 51.1 °F 38.1 °F 30.17 in ESE 3.0 mph 3.0 mph 61% 0.00 in 418 W/m2
12:06 51.1 °F 36.8 °F 30.16 in East 3.0 mph 5.0 mph 58% 0.00 in 371 W/m2
12:12 51.4 °F 37.5 °F 30.16 in ESE 3.0 mph 3.0 mph 59% 0.00 in 359 W/m2
12:18 51.3 °F 37.9 °F 30.15 in ENE 3.0 mph 5.0 mph 60% 0.00 in 345 W/m2
12:24 51.2 °F 37.4 °F 30.14 in ENE 3.0 mph 7.0 mph 59% 0.00 in 380 W/m2
12:30 51.1 °F 38.9 °F 30.15 in ENE 4.0 mph 4.0 mph 63% 0.00 in 543 W/m2
12:36 51.7 °F 37.4 °F 30.14 in ENE 4.0 mph 6.0 mph 58% 0.00 in 536 W/m2
12:42 52.2 °F 37.9 °F 30.13 in East 4.0 mph 10.0 mph 58% 0.00 in 584 W/m2
12:48 52.8 °F 38.4 °F 30.12 in ENE 4.0 mph 10.0 mph 58% 0.00 in 686 W/m2
12:54 53.1 °F 37.8 °F 30.11 in ENE 4.0 mph 4.0 mph 56% 0.00 in 267 W/m2
13:00 53.0 °F 38.2 °F 30.11 in East 3.0 mph 8.0 mph 57% 0.00 in 371 W/m2
13:06 52.6 °F 36.4 °F 30.09 in East 5.0 mph 8.0 mph 54% 0.00 in 320 W/m2
13:12 52.6 °F 36.9 °F 30.08 in NNE 5.0 mph 8.0 mph 55% 0.00 in 297 W/m2
13:18 52.8 °F 37.5 °F 30.08 in East 5.0 mph 8.0 mph 56% 0.00 in 292 W/m2
13:24 52.6 °F 36.9 °F 30.06 in NE 5.0 mph 6.0 mph 55% 0.00 in 251 W/m2
13:30 52.5 °F 36.3 °F 30.05 in East 5.0 mph 5.0 mph 54% 0.00 in 221 W/m2
13:36 52.1 °F 36.9 °F 30.07 in ENE 4.0 mph 5.0 mph 56% 0.00 in 160 W/m2
13:42 51.9 °F 36.2 °F 30.07 in ENE 3.0 mph 5.0 mph 55% 0.00 in 171 W/m2
13:48 51.9 °F 35.8 °F 30.08 in ENE 3.0 mph 5.0 mph 54% 0.00 in 237 W/m2
13:54 52.2 °F 37.0 °F 30.07 in ENE 3.0 mph 9.0 mph 56% 0.00 in 308 W/m2
14:00 52.9 °F 37.2 °F 30.06 in NNE 4.0 mph 5.0 mph 55% 0.00 in 362 W/m2
14:06 53.3 °F 36.6 °F 30.06 in ENE 4.0 mph 7.0 mph 53% 0.00 in 371 W/m2
14:12 53.0 °F 36.3 °F 30.05 in East 5.0 mph 6.0 mph 53% 0.00 in 251 W/m2
14:18 53.5 °F 37.3 °F 30.05 in ENE 4.0 mph 6.0 mph 54% 0.00 in 292 W/m2
14:24 53.9 °F 37.1 °F 30.05 in SE 3.0 mph 8.0 mph 53% 0.00 in 390 W/m2
14:30 54.6 °F 37.3 °F 30.05 in ENE 3.0 mph 3.0 mph 52% 0.00 in 338 W/m2
14:36 54.7 °F 37.9 °F 30.04 in ENE 3.0 mph 3.0 mph 53% 0.00 in 288 W/m2
14:42 54.8 °F 37.5 °F 30.03 in ENE 3.0 mph 3.0 mph 52% 0.00 in 220 W/m2
14:48 54.9 °F 37.6 °F 30.03 in ESE 3.0 mph 4.0 mph 52% 0.00 in 234 W/m2
14:54 55.5 °F 38.1 °F 30.01 in ENE 3.0 mph 4.0 mph 52% 0.00 in 269 W/m2
15:00 55.4 °F 38.1 °F 30.01 in ESE 3.0 mph 3.0 mph 52% 0.00 in 207 W/m2
15:06 55.4 °F 38.1 °F 30.01 in NE 3.0 mph 3.0 mph 52% 0.00 in 162 W/m2
15:12 55.5 °F 38.6 °F 30.01 in East 2.0 mph 3.0 mph 53% 0.00 in 102 W/m2
15:18 55.4 °F 38.5 °F 30.02 in ESE 1.0 mph 3.0 mph 53% 0.00 in 107 W/m2
15:24 55.3 °F 38.4 °F 30.01 in North 1.0 mph 3.0 mph 53% 0.00 in 121 W/m2
15:30 54.8 °F 38.0 °F 30.01 in ENE 2.0 mph 2.0 mph 53% 0.00 in 102 W/m2
15:36 54.4 °F 38.1 °F 30.02 in NE 3.0 mph 3.0 mph 54% 0.00 in 86 W/m2
15:42 53.9 °F 38.1 °F 30.01 in ENE 2.0 mph 3.0 mph 55% 0.00 in 70 W/m2
15:48 53.6 °F 37.8 °F 30.00 in NE 2.0 mph 4.0 mph 55% 0.00 in 69 W/m2
15:54 53.4 °F 38.1 °F 30.00 in East 3.0 mph 5.0 mph 56% 0.00 in 60 W/m2
16:00 52.9 °F 37.6 °F 30.00 in East 3.0 mph 3.0 mph 56% 0.00 in 67 W/m2
16:06 52.6 °F 38.2 °F 29.99 in NE 3.0 mph 3.0 mph 58% 0.00 in 63 W/m2
16:12 52.3 °F 37.5 °F 29.99 in ESE 3.0 mph 3.0 mph 57% 0.00 in 53 W/m2
16:18 52.3 °F 38.0 °F 29.98 in ENE 3.0 mph 8.0 mph 58% 0.00 in 42 W/m2
16:24 52.2 °F 37.4 °F 29.98 in NE 4.0 mph 5.0 mph 57% 0.00 in 42 W/m2
16:30 52.1 °F 37.8 °F 29.97 in East 4.0 mph 4.0 mph 58% 0.00 in 42 W/m2
16:36 52.1 °F 37.8 °F 29.97 in NE 4.0 mph 4.0 mph 58% 0.00 in 32 W/m2
16:42 52.0 °F 37.7 °F 29.96 in East 4.0 mph 5.0 mph 58% 0.00 in 32 W/m2
16:48 51.9 °F 38.0 °F 29.95 in East 3.0 mph 5.0 mph 59% 0.00 in 26 W/m2
16:54 52.0 °F 38.1 °F 29.95 in East 3.0 mph 3.0 mph 59% 0.00 in 26 W/m2
17:00 52.0 °F 37.7 °F 29.95 in ESE 4.0 mph 4.0 mph 58% 0.00 in 23 W/m2
17:06 52.0 °F 38.1 °F 29.95 in East 4.0 mph 5.0 mph 59% 0.00 in 19 W/m2
17:12 51.9 °F 38.0 °F 29.95 in ENE 3.0 mph 4.0 mph 59% 0.00 in 11 W/m2
17:20 51.9 °F 38.0 °F 29.95 in East 2.0 mph 2.0 mph 59% 0.00 in 9 W/m2
17:26 51.8 °F 37.9 °F 29.95 in East 2.0 mph 2.0 mph 59% 0.00 in 9 W/m2
17:32 51.7 °F 38.3 °F 29.94 in East 2.0 mph 3.0 mph 60% 0.00 in 7 W/m2
17:38 51.7 °F 38.3 °F 29.94 in ENE 2.0 mph 3.0 mph 60% 0.00 in 5 W/m2
17:44 51.7 °F 37.8 °F 29.94 in ENE 2.0 mph 5.0 mph 59% 0.00 in 0 W/m2
17:50 51.8 °F 38.3 °F 29.93 in ENE 3.0 mph 3.0 mph 60% 0.00 in 0 W/m2
17:56 51.7 °F 38.3 °F 29.94 in ENE 2.0 mph 3.0 mph 60% 0.00 in 0 W/m2
18:02 51.7 °F 38.3 °F 29.94 in East 2.0 mph 2.0 mph 60% 0.00 in 0 W/m2
18:08 51.7 °F 38.7 °F 29.93 in ENE 2.0 mph 4.0 mph 61% 0.00 in 0 W/m2
18:14 51.6 °F 38.6 °F 29.93 in SE 2.0 mph 5.0 mph 61% 0.00 in 0 W/m2
18:20 51.6 °F 38.6 °F 29.93 in North 2.0 mph 2.0 mph 61% 0.00 in 0 W/m2
18:26 51.6 °F 38.6 °F 29.93 in ENE 1.0 mph 2.0 mph 61% 0.00 in 0 W/m2
18:32 51.5 °F 38.5 °F 29.92 in ENE 1.0 mph 2.0 mph 61% 0.00 in 0 W/m2
18:40 51.5 °F 38.5 °F 29.92 in ENE 1.0 mph 2.0 mph 61% 0.00 in 0 W/m2
18:46 51.3 °F 39.1 °F 29.92 in ENE 1.0 mph 2.0 mph 63% 0.00 in 0 W/m2
18:52 51.0 °F 38.8 °F 29.92 in Calm   1.0 mph 63% 0.00 in 0 W/m2
18:58 50.7 °F 38.6 °F 29.92 in Calm   2.0 mph 63% 0.00 in 0 W/m2
19:04 51.0 °F 38.8 °F 29.92 in Calm     63% 0.00 in 0 W/m2
19:10 51.2 °F 38.6 °F 29.92 in Calm     62% 0.00 in 0 W/m2
19:16 51.1 °F 39.7 °F 29.92 in Calm     65% 0.00 in 0 W/m2
19:22 50.7 °F 39.7 °F 29.92 in Calm     66% 0.00 in 0 W/m2
19:28 50.3 °F 39.8 °F 29.92 in Calm     67% 0.00 in 0 W/m2
19:34 50.1 °F 39.2 °F 29.91 in Calm     66% 0.00 in 0 W/m2
19:40 49.8 °F 39.7 °F 29.91 in Calm     68% 0.00 in 0 W/m2
19:46 49.5 °F 39.4 °F 29.90 in ESE 1.0 mph 2.0 mph 68% 0.00 in 0 W/m2
19:52 49.4 °F 39.7 °F 29.90 in ESE 1.0 mph 1.0 mph 69% 0.00 in 0 W/m2
19:58 49.5 °F 39.4 °F 29.89 in Calm   1.0 mph 68% 0.00 in 0 W/m2
20:04 49.9 °F 39.4 °F 29.89 in Calm     67% 0.00 in 0 W/m2
20:10 50.2 °F 38.1 °F 29.88 in South 1.0 mph 4.0 mph 63% 0.00 in 0 W/m2
20:16 54.0 °F 38.2 °F 29.87 in South 2.0 mph 4.0 mph 55% 0.00 in 0 W/m2
20:22 56.0 °F 38.1 °F 29.87 in ESE 3.0 mph 4.0 mph 51% 0.00 in 0 W/m2
20:28 57.0 °F 38.0 °F 29.87 in SE 4.0 mph 6.0 mph 49% 0.00 in 0 W/m2
20:36 57.3 °F 38.3 °F 29.86 in SSE 5.0 mph 5.0 mph 49% 0.00 in 0 W/m2
20:42 57.4 °F 38.4 °F 29.86 in South 5.0 mph 6.0 mph 49% 0.00 in 0 W/m2
20:48 57.4 °F 38.4 °F 29.86 in SSW 4.0 mph 6.0 mph 49% 0.00 in 0 W/m2
20:54 57.5 °F 38.5 °F 29.86 in SW 3.0 mph 4.0 mph 49% 0.00 in 0 W/m2
21:00 57.5 °F 39.0 °F 29.86 in SSW 3.0 mph 6.0 mph 50% 0.00 in 0 W/m2
21:06 57.4 °F 39.4 °F 29.85 in SSW 4.0 mph 6.0 mph 51% 0.00 in 0 W/m2
21:12 57.5 °F 39.0 °F 29.85 in South 4.0 mph 6.0 mph 50% 0.00 in 0 W/m2
21:18 57.7 °F 39.2 °F 29.85 in SSW 5.0 mph 10.0 mph 50% 0.00 in 0 W/m2
21:24 57.6 °F 39.6 °F 29.84 in South 4.0 mph 9.0 mph 51% 0.00 in 0 W/m2
21:30 57.6 °F 39.6 °F 29.84 in SSW 3.0 mph 3.0 mph 51% 0.00 in 0 W/m2
21:36 57.8 °F 39.3 °F 29.84 in SSW 4.0 mph 6.0 mph 50% 0.00 in 0 W/m2
21:42 57.9 °F 39.4 °F 29.84 in SSW 6.0 mph 7.0 mph 50% 0.00 in 0 W/m2
21:48 57.8 °F 39.3 °F 29.84 in SSW 6.0 mph 9.0 mph 50% 0.00 in 0 W/m2
21:54 57.8 °F 39.3 °F 29.83 in SSW 6.0 mph 7.0 mph 50% 0.00 in 0 W/m2
22:00 57.7 °F 39.7 °F 29.83 in South 7.0 mph 8.0 mph 51% 0.00 in 0 W/m2
22:06 57.7 °F 39.7 °F 29.82 in South 5.0 mph 8.0 mph 51% 0.00 in 0 W/m2
22:12 57.7 °F 39.7 °F 29.82 in South 5.0 mph 5.0 mph 51% 0.00 in 0 W/m2
22:18 57.6 °F 39.6 °F 29.81 in South 5.0 mph 5.0 mph 51% 0.00 in 0 W/m2
22:24 57.5 °F 40.0 °F 29.81 in SSE 5.0 mph 6.0 mph 52% 0.00 in 0 W/m2
22:30 57.5 °F 40.0 °F 29.81 in SSW 4.0 mph 6.0 mph 52% 0.00 in 0 W/m2
22:36 57.6 °F 40.1 °F 29.81 in South 6.0 mph 18.0 mph 52% 0.00 in 0 W/m2
22:42 57.5 °F 40.0 °F 29.81 in SSE 6.0 mph 9.0 mph 52% 0.00 in 0 W/m2
22:48 57.7 °F 40.2 °F 29.80 in SSW 6.0 mph 11.0 mph 52% 0.00 in 0 W/m2
22:54 57.6 °F 40.1 °F 29.80 in South 6.0 mph 8.0 mph 52% 0.00 in 0 W/m2
23:00 57.4 °F 39.9 °F 29.80 in SSE 5.0 mph 5.0 mph 52% 0.00 in 0 W/m2
23:06 57.3 °F 40.3 °F 29.80 in South 5.0 mph 7.0 mph 53% 0.00 in 0 W/m2
23:12 57.4 °F 40.4 °F 29.79 in SSW 5.0 mph 7.0 mph 53% 0.00 in 0 W/m2
23:18 57.5 °F 41.0 °F 29.79 in South 6.0 mph 9.0 mph 54% 0.00 in 0 W/m2
23:24 57.4 °F 40.9 °F 29.79 in SSE 4.0 mph 5.0 mph 54% 0.00 in 0 W/m2
23:30 57.2 °F 41.2 °F 29.79 in South 4.0 mph 4.0 mph 55% 0.00 in 0 W/m2
23:36 57.2 °F 41.2 °F 29.79 in SW 4.0 mph 5.0 mph 55% 0.00 in 0 W/m2
23:42 57.4 °F 41.4 °F 29.79 in South 6.0 mph 7.0 mph 55% 0.00 in 0 W/m2
23:48 57.3 °F 41.7 °F 29.78 in SW 5.0 mph 7.0 mph 56% 0.00 in 0 W/m2
23:54 57.3 °F 41.7 °F 29.78 in South 4.0 mph 7.0 mph 56% 0.00 in 0 W/m2
Country Meadow, Clay, NY, USA
Compliments of Weather Underground - 2 mb